Regional Weather Roundup
Issued by NWS

Home | Current Version | Previous Version | Text Only | Print | Product List | Glossary Off
Versions: 1 2 3 4 5 6 7 8 9 10 11 12 13 14 15 16 17 18 19 20 21 22 23 24 25 26 27 28 29 30 31 32 33 34 35 36 37 38 39 40 41 42 43 44 45 46 47 48 49 50

000
ASUS44 KMEG 160310
RWRTN
TENNESSEE HOURLY STATE WEATHER ROUNDUP
NATIONAL WEATHER SERVICE MEMPHIS TN
900 PM CST FRI DEC 15 2017

TNZ002-004-019-021-049-052-054-088>092-160400-
WEST TENNESSEE

CITY           SKY/WX    TMP DP  RH WIND       PRES   REMARKS
MEMPHIS INTL   CLEAR     39  27  62 S10       30.20S WCI  32
NWS MEMPHIS      N/A     39 N/A N/A MISG        N/A
JACKSON        CLEAR     34  26  72 S8        30.19F WCI  27
DYERSBURG      CLEAR     39  27  62 VRB6      30.18S WCI  35
SOMERVILLE     CLEAR     37  27  65 S7        30.18S WCI  32
COVINGTON      CLEAR     36  27  69 S8        30.18F WCI  29
UNION CITY     CLEAR     37  27  65 S8        30.16S WCI  31
BOLIVAR        PTCLDY    32  25  74 S3        30.19F
PARIS          CLEAR     34  27  75 S7        30.16S WCI  28
HUNTINGDON     PTCLDY    34  27  75 S6        30.17S WCI  29
LEXINGTON      CLEAR     30  25  80 CALM      30.20S
SELMER         CLEAR     32  25  74 CALM      30.20S
SAVANNAH       PTCLDY    27  25  93 CALM      30.22R
$$

TNZ008-025-027-028-033-062-065-066-160400-
NORTH MIDDLE TENNESSEE

CITY           SKY/WX    TMP DP  RH WIND       PRES   REMARKS
NASHVILLE      CLEAR     31  23  72 S8        30.21S WCI  23
PORTLAND       CLEAR     34  23  64 S8        30.17R WCI  27
CLARKSVILLE    CLEAR     34  22  61 S6        30.17R WCI  29
SMYRNA         PTCLDY    28  23  81 S5        30.23R WCI  23
COOKEVILLE     CLOUDY    25  23  93 S3        30.20R
GALLATIN       CLOUDY    32  25  74 CALM      30.22S
CROSSVILLE     CLOUDY    25  19  78 SW3       30.18R
$$

TNZ061-075-076-078-094-096-097-160400-
SOUTH MIDDLE TENNESSEE

CITY           SKY/WX    TMP DP  RH WIND       PRES   REMARKS
FAYETTEVILLE   CLEAR     28  23  80 CALM      30.21S
TULLAHOMA      CLEAR     25  21  86 CALM      30.21R
WINCHESTER     CLEAR     23  19  86 CALM      30.23S
MCMINNVILLE    PTCLDY    25  21  86 CALM      30.22R
COLUMBIA       CLEAR     28  23  80 CALM      30.20R
SHELBYVILLE    CLEAR     25  21  86 E3        30.22S
$$

TNZ017-018-042-046-047-160400-
NORTHEAST TENNESSEE

CITY           SKY/WX    TMP DP  RH WIND       PRES   REMARKS
TRI CITIES     CLOUDY    30  23  75 SW5       30.17R WCI  25
ELIZABETHTON   CLOUDY    32  21  64 W6        30.17R WCI  26
$$

TNZ012-013-036-069-073-074-160400-
CENTRAL EAST TENNESSEE

CITY           SKY/WX    TMP DP  RH WIND       PRES   REMARKS
KNOXVILLE      PTCLDY    28  24  85 SW5       30.22R WCI  23
OAK RIDGE      CLOUDY    30  23  75 S3        30.23R
DOWNTOWN KNOXV   N/A     30  23  74 CALM      30.23R
GATLINBURG     MOCLDY    27  23  86 CALM      30.22R
MORRISTOWN     CLOUDY    30  23  74 SW8       30.19R WCI  23
JACKSBORO      CLOUDY    28  23  80 CALM      30.23R
$$

TNZ083-085-099-160400-
SOUTHEAST TENNESSEE

CITY           SKY/WX    TMP DP  RH WIND       PRES   REMARKS
CHATTANOOGA    PTCLDY    28  22  78 CALM      30.24R
DAYTON         CLEAR     25  23  93 CALM      30.23R
$$

SKY/WX REPORTED AS FAIR MEANS FEW OR NO CLOUDS BELOW
12 THOUSAND FEET.





USA.gov is the U.S. government's official web portal to all federal, state and local government web resources and services.